Accueil
METAR-TAF:

METAR-TAF

Aéroports :

Capo Mele

Andora, Italie

latitude: 43-57N, longitude: 008-10E, altitude: 220 m

Observation

Le bulletin a été fait il y a 1 heure et 9 minutes, à 21:55 UTC
Vent calme
Température 23°C
Humidité 78%
Pression 1016 hPa
Visibilité 10 km ou plus
pas de nuages en-dessous de 1500 mètres et pas de cumulonimbus.

METAR: LIMU 172155Z 00000KT CAVOK 23/19 Q1016 RMK SKC QUK / QUL / VIS MAR 50 KM VIS MIN 9999

Heure: 01:04 (23:04 UTC)


TAF: absent

Observations et prévisions météorologiques de plus de 4000 aéroports (messages METAR et TAF).

Les stations disponibles sont représentées par des disques jaunes et rouges sur la carte.

Passer la souris dessus pour voir le nom de la station.

Cliquer dessus pour voir les observations et prévisions météorologiques.

Pour changer de carte: cliquez sur les boutons verts avec une croix noire pour zoomer, sur le bouton vert avec un tiret pour effectuer un zoom arrière, ou sur les flèches vertes pour les cartes adjacentes.


METAR-TAF: